Wind_Speed
6 8 8 7 8 9 10 10 10 10 11 13 14 14 15 16 16 17 18 19 20 20 19 19 19 19 18 19 20 19 18 18 19 18 18 17 17 17 17 16 15 16 16 16
6 7 6 7 8 10 11 11 10 10 11 13 13 14 16 18 16 16 17 18 20 21 20 19 18 18 18 18 18 18 19 19 18 17 18 17 16 16 16 15 15 16 16 16
6 5 5 7 9 10 12 12 12 13 13 14 13 13 16 17 16 17 17 18 20 19 18 19 19 19 20 20 19 18 18 18 17 17 17 16 15 15 15 15 15 16 16 15
5 5 6 8 9 11 12 11 13 13 14 14 14 14 16 16 17 17 18 18 18 18 17 17 18 19 19 19 19 18 18 18 17 17 16 15 15 15 14 15 15 15 16 16
5 6 8 9 10 12 12 12 13 13 14 14 13 14 16 16 17 19 19 19 18 18 18 18 19 19 19 20 18 17 17 17 18 17 16 15 16 16 15 15 15 16 16 17
6 8 9 10 11 12 12 12 13 13 13 14 13 15 16 17 17 17 17 18 19 18 18 18 18 18 18 18 18 18 18 17 17 17 16 16 16 16 16 16 16 17 17 17
7 7 9 9 10 11 12 12 12 14 12 12 13 15 16 16 17 17 16 17 18 18 17 17 17 17 16 16 17 17 17 16 17 17 17 18 17 16 16 17 18 18 17 18
9 9 9 9 9 10 10 10 11 12 11 11 12 14 14 13 14 14 14 15 16 18 17 15 16 16 16 16 16 15 16 16 17 17 17 17 17 17 17 18 18 17 17 18
10 9 9 9 9 11 11 10 10 10 11 11 11 12 12 11 11 10 13 14 15 17 18 17 15 16 15 15 14 14 15 16 17 17 17 17 16 16 16 16 17 17 17 18
11 10 9 8 8 8 8 8 8 9 10 10 11 11 12 11 12 12 13 13 15 16 16 15 13 14 13 14 14 14 14 13 15 15 15 15 16 16 16 17 16 16 16 17
9 9 8 7 7 7 7 6 6 7 8 8 10 10 11 12 12 13 14 15 16 16 14 14 12 12 11 11 11 12 12 11 13 12 12 13 14 14 15 16 16 15 15 16
8 8 7 7 8 7 7 6 7 7 7 8 9 10 11 12 12 14 14 15 15 16 15 13 11 12 11 10 10 10 10 10 10 10 10 11 12 12 13 13 14 15 16 15
8 8 8 6 6 6 6 7 7 8 8 8 9 10 11 11 12 13 13 13 14 13 12 11 10 10 10 10 9 9 9 9 10 10 10 11 10 10 11 12 12 13 13 14
7 7 8 8 7 7 6 7 7 7 8 8 9 9 10 10 12 13 13 12 12 13 12 10 9 9 9 9 9 9 9 9 9 9 9 9 9 10 10 10 11 11 11 12
6 7 8 8 8 7 7 7 7 7 8 8 8 9 10 11 11 12 12 11 11 11 11 10 10 10 8 8 8 8 7 7 8 8 8 8 8 9 10 10 10 10 11 11
6 6 8 8 8 8 7 7 6 6 7 8 8 8 10 10 10 11 11 11 11 11 11 10 10 9 9 8 6 6 7 7 8 8 8 9 9 9 9 10 10 10 11 11
7 6 7 7 8 8 7 7 7 7 7 7 8 8 9 9 9 11 11 11 12 11 10 9 9 9 8 7 6 6 7 7 8 8 8 9 9 9 9 10 9 9 10 11
8 8 8 7 8 8 7 7 7 7 8 8 8 9 9 9 10 10 10 10 11 11 10 9 10 9 8 8 6 5 6 6 7 7 7 8 8 8 8 8 8 8 9 10
8 9 9 9 9 7 8 9 8 8 8 8 8 9 9 9 9 9 9 9 10 11 10 9 9 9 8 7 6 5 4 5 5 5 6 6 6 7 7 7 7 8 9 9
9 9 9 10 9 8 8 8 8 7 7 7 7 8 9 10 8 8 9 9 10 10 10 9 9 8 8 7 6 5 4 4 4 4 4 4 5 5 5 6 6 7 8 8
9 9 10 10 9 9 8 7 6 6 6 6 6 8 9 9 9 9 9 9 9 9 9 9 9 9 8 7 6 6 5 4 3 3 3 3 4 4 5 5 6 7 8 9
9 9 10 10 9 9 9 6 6 7 7 7 7 8 8 9 9 9 9 9 9 9 9 9 9 9 8 7 7 6 6 5 4 3 4 4 5 5 5 5 6 7 8 9
8 9 10 10 9 10 8 7 6 7 7 7 7 8 9 10 9 9 9 9 9 9 8 8 9 8 8 7 7 6 6 5 5 4 4 5 6 6 6 6 6 7 8 9
8 9 10 10 9 9 8 7 6 6 7 6 7 8 9 9 9 9 9 9 8 8 8 8 8 8 8 7 6 6 5 5 5 4 4 5 6 6 6 6 7 8 8 9
8 8 9 10 9 9 8 8 7 7 7 6 7 7 8 8 8 8 9 8 7 7 7 7 8 8 8 7 6 5 5 5 5 5 5 5 6 6 6 7 7 8 8 10
8 8 10 10 10 9 9 8 8 8 7 7 7 7 7 8 7 7 7 7 7 7 7 6 7 7 7 7 7 5 5 5 6 6 6 6 6 6 7 7 7 8 9 11
Wind_Direction
257 250 252 246 240 240 242 247 252 257 259 261 260 264 269 272 269 269 271 275 276 280 281 283 282 281 278 277 275 275 276 278 276 275 273 272 273 274 275 277 276 278 279 282
272 259 250 247 242 242 242 249 259 262 263 268 269 270 272 275 274 276 276 279 279 281 282 281 282 281 278 275 274 275 275 274 275 274 273 271 273 273 276 276 276 279 282 284
290 269 248 255 252 250 250 256 264 268 268 267 270 270 277 275 274 276 277 279 281 279 279 281 283 282 284 282 277 274 274 273 272 272 272 269 270 271 275 277 278 279 282 284
301 276 264 259 259 261 257 261 264 268 270 271 269 268 269 270 271 274 276 278 278 275 277 283 285 284 282 281 277 275 273 270 267 265 266 268 269 269 275 278 278 278 282 286
316 292 279 273 272 272 268 268 266 269 273 274 268 262 267 270 272 275 276 276 274 273 275 284 287 286 282 278 276 273 272 267 264 265 262 266 267 270 272 274 277 279 282 284
321 305 294 289 285 284 279 272 268 268 269 268 264 267 270 271 274 280 280 278 277 277 279 281 283 281 279 278 274 274 273 265 263 264 264 266 266 268 270 274 276 278 281 283
309 301 297 289 281 277 273 275 273 268 265 269 273 272 275 274 277 279 277 280 279 280 287 286 284 283 278 278 276 275 268 260 262 264 264 264 267 270 270 274 276 278 280 283
319 316 305 296 292 287 283 277 275 272 269 273 274 272 272 280 286 282 280 286 284 286 288 289 289 287 287 287 287 285 275 270 268 267 267 267 268 269 270 273 276 276 279 282
326 329 323 312 304 299 291 281 276 277 278 277 277 280 277 281 286 289 291 293 294 295 293 292 294 291 288 288 287 288 281 276 273 271 269 270 272 272 275 275 274 276 279 282
323 329 330 325 313 305 294 288 281 274 279 285 284 285 291 292 307 305 311 306 305 303 299 294 296 294 290 292 289 288 281 283 279 276 270 269 270 272 273 273 278 278 280 283
322 326 329 323 322 317 307 301 293 287 285 289 293 299 313 310 319 322 318 315 312 308 303 301 297 301 302 296 288 281 279 281 279 276 267 270 274 276 278 282 280 278 284 287
330 332 337 331 327 319 309 314 307 295 290 294 298 306 317 319 323 324 323 318 315 313 306 306 305 296 297 296 289 284 282 279 281 280 279 275 277 280 283 286 285 284 285 288
333 332 334 334 330 325 317 319 313 300 295 297 303 315 319 323 326 325 325 321 319 319 317 313 309 303 300 298 294 291 287 281 284 284 285 284 285 290 293 292 292 290 288 289
337 333 336 339 340 337 330 325 317 307 307 302 307 315 325 326 327 327 328 327 325 323 326 325 318 307 297 295 295 292 288 284 283 285 288 289 289 293 298 299 298 296 294 295
336 335 338 344 342 339 335 332 323 312 316 319 318 322 329 333 335 333 333 331 330 328 332 330 327 322 308 298 290 286 287 285 281 284 286 288 291 297 300 301 300 300 301 303
340 335 334 337 341 345 341 338 331 322 323 321 314 316 327 332 335 337 340 338 335 336 337 335 331 328 319 306 295 283 282 286 285 285 287 288 292 297 300 301 303 302 302 303
345 340 342 342 341 345 345 337 330 333 340 334 326 326 326 331 332 333 336 339 342 341 339 334 332 330 324 312 299 285 280 281 285 286 285 287 290 294 298 297 301 306 308 310
338 337 334 339 343 349 346 341 347 338 335 341 340 338 339 344 344 346 350 351 349 349 343 341 343 342 338 330 314 293 289 285 282 285 287 288 288 293 296 297 304 309 312 315
339 337 331 334 340 344 340 338 339 338 339 347 351 346 351 354 351 352 351 348 350 354 354 353 353 353 351 345 339 325 310 293 290 289 288 287 285 292 302 304 308 315 317 319
342 338 331 330 335 340 339 335 333 342 345 348 348 351 353 353 352 351 348 351 355 356 358 358 354 356 355 349 345 342 333 314 305 303 299 300 306 310 314 313 319 324 324 329
335 340 342 338 339 343 346 340 342 350 351 353 357 359 355 354 354 351 351 356 354 355 359 1 360 1 4 2 0 1 359 350 335 335 344 345 342 335 331 333 338 341 342 345
333 333 340 343 347 353 357 356 350 353 358 2 1 358 356 354 354 352 354 354 354 356 358 360 1 3 7 10 11 11 7 7 8 17 19 9 356 351 350 350 353 352 349 348
325 328 330 336 341 346 353 354 345 348 353 351 349 352 353 352 349 351 353 354 354 357 359 359 2 6 8 10 13 14 16 18 17 14 12 3 359 358 356 354 353 352 347 347
322 324 327 331 333 335 338 337 334 335 340 342 345 352 354 352 351 350 353 355 357 359 1 5 6 7 7 9 11 13 16 15 5 357 354 355 355 356 353 350 348 349 351 349
320 326 329 331 330 323 320 323 324 325 331 334 338 338 343 348 347 347 350 354 358 359 4 11 12 8 7 4 1 5 7 4 0 358 356 355 352 350 348 347 347 349 349 348
313 318 323 329 330 324 317 312 312 314 320 326 328 323 328 334 339 343 346 351 352 350 353 359 360 360 359 356 353 350 351 355 357 356 355 354 353 349 346 345 347 345 344 343
Height
5837 5838 5838 5838 5837 5837 5837 5838 5838 5839 5839 5838 5838 5838 5837 5837 5836 5836 5836 5836 5836 5835 5833 5831 5829 5829 5828 5828 5827 5826 5826 5826 5825 5824 5824 5824 5824 5823 5823 5823 5822 5822 5822 5821
5836 5836 5836 5835 5834 5834 5834 5834 5835 5835 5835 5835 5834 5835 5834 5833 5832 5832 5832 5832 5831 5830 5829 5827 5826 5825 5825 5824 5822 5822 5821 5820 5819 5819 5818 5818 5819 5818 5819 5818 5818 5817 5817 5817
5833 5834 5832 5832 5831 5831 5830 5831 5831 5831 5831 5831 5832 5832 5830 5829 5829 5828 5827 5827 5826 5826 5825 5824 5822 5821 5821 5819 5817 5816 5815 5815 5814 5814 5814 5814 5814 5814 5815 5814 5814 5813 5813 5812
5831 5830 5829 5828 5828 5827 5827 5827 5827 5828 5828 5827 5829 5827 5826 5825 5825 5824 5823 5823 5822 5821 5820 5819 5817 5816 5815 5814 5813 5811 5810 5810 5809 5809 5809 5809 5810 5810 5810 5810 5809 5809 5808 5808
5829 5827 5826 5825 5825 5824 5824 5823 5824 5824 5824 5823 5823 5823 5823 5821 5820 5820 5818 5818 5817 5817 5816 5814 5812 5811 5810 5809 5808 5806 5806 5805 5804 5803 5804 5805 5806 5805 5805 5805 5805 5804 5804 5803
5826 5825 5823 5822 5822 5821 5820 5820 5820 5820 5820 5819 5819 5819 5818 5816 5816 5815 5814 5814 5812 5811 5810 5809 5808 5806 5805 5804 5803 5802 5801 5800 5800 5799 5800 5800 5800 5801 5801 5800 5800 5800 5799 5798
5824 5823 5821 5820 5818 5818 5817 5817 5817 5816 5815 5815 5815 5814 5814 5813 5812 5811 5810 5810 5809 5807 5805 5804 5803 5801 5800 5800 5798 5798 5796 5795 5795 5795 5796 5796 5795 5796 5796 5796 5795 5795 5794 5793
5821 5820 5818 5816 5815 5813 5813 5813 5813 5812 5811 5812 5811 5811 5811 5810 5809 5807 5806 5805 5805 5803 5801 5800 5798 5796 5796 5795 5794 5792 5791 5790 5790 5790 5790 5791 5791 5791 5792 5791 5791 5790 5789 5788
5818 5817 5815 5813 5812 5811 5810 5809 5809 5809 5809 5809 5808 5808 5808 5808 5806 5805 5804 5802 5801 5800 5797 5796 5794 5793 5792 5791 5789 5788 5787 5786 5785 5785 5785 5786 5786 5786 5787 5787 5786 5786 5785 5783
5816 5815 5813 5812 5811 5809 5808 5806 5806 5806 5805 5805 5806 5805 5805 5804 5803 5801 5800 5799 5797 5795 5793 5791 5790 5789 5788 5786 5784 5783 5782 5781 5780 5780 5780 5781 5781 5782 5782 5782 5781 5781 5780 5778
5814 5814 5812 5810 5808 5806 5806 5805 5804 5804 5803 5803 5803 5805 5802 5801 5800 5798 5797 5795 5793 5791 5789 5788 5786 5785 5784 5782 5781 5779 5778 5778 5777 5777 5777 5777 5777 5777 5777 5777 5777 5776 5775 5773
5813 5812 5810 5808 5806 5805 5804 5803 5802 5803 5802 5802 5801 5804 5799 5798 5797 5795 5794 5792 5790 5788 5786 5784 5783 5782 5781 5779 5778 5776 5775 5775 5774 5774 5774 5773 5773 5773 5772 5772 5771 5771 5770 5769
5812 5811 5810 5808 5808 5806 5803 5802 5801 5801 5800 5800 5800 5802 5797 5795 5794 5793 5791 5789 5787 5785 5783 5780 5779 5778 5777 5776 5775 5774 5773 5772 5772 5771 5771 5770 5770 5769 5769 5768 5767 5766 5766 5765
5811 5810 5809 5807 5804 5803 5802 5801 5800 5800 5799 5798 5798 5798 5796 5794 5793 5791 5789 5787 5784 5782 5780 5778 5776 5775 5774 5773 5772 5771 5770 5770 5769 5769 5768 5768 5767 5767 5766 5765 5764 5763 5762 5761
5811 5809 5807 5805 5803 5802 5801 5800 5799 5799 5798 5797 5796 5796 5795 5793 5791 5789 5787 5785 5782 5780 5778 5776 5774 5772 5771 5770 5769 5769 5768 5767 5767 5767 5766 5766 5765 5764 5763 5762 5761 5760 5759 5757
5810 5809 5807 5805 5803 5801 5801 5800 5799 5798 5796 5795 5795 5795 5793 5792 5790 5788 5786 5783 5781 5778 5776 5774 5772 5770 5768 5767 5767 5766 5766 5765 5765 5765 5764 5763 5763 5762 5761 5760 5759 5757 5755 5754
5808 5807 5806 5805 5802 5801 5801 5799 5797 5796 5795 5794 5793 5793 5791 5790 5788 5786 5784 5782 5780 5777 5775 5773 5771 5768 5767 5765 5764 5764 5763 5763 5763 5762 5762 5761 5760 5759 5758 5757 5756 5754 5752 5751
5808 5806 5805 5804 5803 5801 5802 5798 5796 5795 5794 5793 5792 5791 5790 5789 5787 5784 5782 5780 5778 5776 5773 5771 5769 5767 5765 5764 5762 5762 5761 5760 5760 5759 5759 5758 5758 5757 5756 5754 5753 5751 5750 5748
5807 5806 5804 5803 5801 5800 5799 5797 5795 5794 5793 5792 5791 5790 5789 5787 5786 5784 5782 5780 5777 5775 5773 5770 5768 5766 5764 5762 5761 5760 5759 5758 5758 5757 5757 5756 5755 5754 5753 5752 5751 5749 5747 5745
5806 5805 5804 5802 5800 5799 5800 5797 5795 5794 5793 5792 5791 5789 5788 5786 5785 5784 5781 5779 5777 5775 5773 5771 5769 5766 5764 5762 5761 5759 5758 5757 5757 5756 5756 5755 5754 5753 5752 5751 5749 5747 5745 5743
5806 5804 5802 5801 5799 5798 5798 5796 5795 5795 5794 5791 5790 5788 5787 5785 5784 5782 5780 5778 5776 5774 5773 5771 5769 5766 5764 5762 5761 5760 5758 5757 5756 5756 5755 5754 5753 5752 5751 5750 5748 5746 5744 5742
5804 5802 5801 5800 5799 5800 5796 5795 5795 5794 5792 5791 5789 5788 5786 5784 5783 5781 5779 5777 5776 5774 5772 5771 5769 5767 5765 5763 5761 5760 5759 5758 5757 5756 5755 5754 5753 5752 5750 5749 5747 5745 5743 5741
5802 5802 5800 5799 5799 5797 5795 5794 5793 5792 5791 5790 5789 5787 5786 5784 5782 5781 5779 5777 5775 5774 5772 5771 5769 5767 5765 5764 5762 5761 5759 5758 5757 5757 5756 5755 5753 5752 5750 5748 5747 5745 5743 5740
5800 5799 5798 5797 5796 5795 5794 5793 5792 5791 5790 5789 5788 5786 5785 5783 5782 5780 5778 5777 5775 5774 5772 5770 5769 5767 5766 5764 5763 5761 5760 5759 5758 5756 5755 5754 5753 5751 5750 5748 5746 5744 5742 5740
5799 5798 5797 5796 5795 5794 5793 5792 5791 5790 5789 5788 5787 5785 5784 5783 5781 5780 5778 5776 5775 5774 5772 5771 5769 5767 5766 5765 5763 5762 5760 5759 5758 5756 5755 5754 5752 5751 5749 5748 5746 5743 5741 5739
5797 5797 5795 5794 5793 5792 5791 5790 5789 5788 5787 5787 5786 5785 5783 5782 5780 5779 5777 5776 5774 5773 5772 5770 5769 5767 5766 5764 5763 5762 5760 5759 5758 5756 5754 5753 5752 5750 5749 5747 5745 5743 5741 5738